Location: Manchester NH
(43.0000°N, 71.5000°W)
Time: 19:34:36
(UTC-04:00)

Envisat - Visible Passes

Search period start: 04 June 2023 00:00
Search period end: 14 June 2023 00:00
Orbit: 763 x 765 km, 98.2° (Epoch: 04 June)

Date Brightness Start Highest point End Pass type
(mag) Time Alt. Az. Time Alt. Az. Time Alt. Az.
05 Jun 4.7 03:56:09 10° NNE 04:00:39 31° E 04:05:08 10° SSE visible
06 Jun 5.6 03:20:28 10° ENE 03:23:10 14° E 03:25:51 10° ESE visible
07 Jun 3.8 04:20:30 10° NNE 04:25:29 54° E 04:30:26 10° S visible
08 Jun 5.0 03:44:00 10° NE 03:48:08 24° E 03:52:14 10° SSE visible
09 Jun 5.8 03:09:27 10° ENE 03:10:34 11° E 03:11:41 10° E visible
10 Jun 4.2 04:08:13 10° NNE 04:13:01 41° E 04:17:47 10° SSE visible
11 Jun 5.4 03:32:00 10° NE 03:35:35 19° E 03:39:08 10° SE visible
13 Jun 4.6 03:55:58 10° NNE 04:00:30 32° E 04:05:00 10° SSE visible
